Showing default

BEIDOU 3M21, 44793

Orbit data source: Space-Track

BEIDOU 3M21, 44793 is a payload satellite owned by CNSA (CN) in MEO that was launched on Sat, 23 Nov 2019 UTC via a CHANG ZHENG 3B/YZ-1 launch vehicle from the Xichang Space Center, China (XSC). Payload-class satellites include a variety of spacecraft equipped with specific instruments for various scientific and technological missions. These include communications satellites like Starlink; space stations such as the ISS; scientific satellites like the Hubble; Earth observation satellites from companies like Planet Labs, Umbra, and HawkEye 360; GPS; miniature CubeSats for education and research; and military/defense satellites.

Loading next visibility...
Identifier
44793, 2019-078A
Orbit
MEO
Country
Flag of CNCN / PRC
Related business
Manufacturer
SECM
Mission
Operational Defense Navigation
Bus & Motor
BD-3M2, Unknown motor
Mass
1,014 kg wet, ~850 kg dry
Launch date (UTC)
2019-11-23 (7 years ago)
Launch vehicle
CHANG ZHENG 3B/YZ-1
Launch site
Xichang Space Center, China (XSC)
Object type
Payload
Rocket body
Debris
Shape & HBR
Box + 2 Pan, 1.6 m
Radar Cross Section
8.984 m², Large (>1 m²)

Expand to show TLE details & history
Last TLE update: 2 days ago

TLE from 2 days ago
0 BEIDOU 3M21
1 44793U 19078A   26265.80933403 -.00000010  00000-0  00000-0 0  9995
2 44793  53.8445 296.3842 0004865  39.3537 320.7460  1.86227543 46465
Epoch: 2026-09-22T19:25Z
TLE epoch observation values (Epoch: 2026-09-22T19:25:26.460Z)
Latitude
-0.00005°
Longitude
3.37531°
Altitude
21,518.123 km
Speed
3.781 km/s
True Right ascension
19h 45m 37s
True Declination
0° 00' 00"
Sunlit
Object was in daylight at epoch
Visualization orbit readout
Latitude
Unknown
Longitude
Unknown
Altitude
Unknown
Speed
Unknown
Apparent Right ascension
Unknown
Apparent Declination
Unknown
Sunlit
N/A
Visualization observer readout
Local Sidereal Time
07:26:31
Azimuth
Unknown
Elevation
Unknown
Doppler factor
Unknown
Orbital elements
Apogee altitude
21,542.025 km
Perigee altitude
21,514.872 km
Semi-major axis
27,906.586 km
Eccentricity
0.00049
Inclination
53.8445°
RAAN
296.3842°
Arg. of periapsis
39.3537°
True anomaly
320.71071°
Mean anomaly
320.746°
Eccentric anomaly
320.72836°
Mean motion
0.46557 °/min
Orbital period
773.25 mins
BSTAR
0
Loading maneuver chart data...
Computing Atmospheric mass density...
Loading historical data...
Loading historical data...
Loading historical data...
Loading historical data...
Loading historical data...
Loading historical data...
Loading historical data...
Other satellites on launch #78 in the year 2019 (2019-11-23 UTC)

Documentation

Showing up to 5 results
|